Regional Weather Roundup
Issued by NWS Goodland, KS

Home | Current Version | Previous Version | Graphics & Text | Print | Product List | Glossary On
Versions: 1 2 3 4 5 6 7 8 9 10 11 12 13 14 15 16 17 18 19 20 21 22 23 24 25 26 27 28 29 30 31 32 33 34 35 36 37 38 39 40 41 42 43 44 45 46 47 48 49 50
000
ASUS43 KGLD 280908
RWRGLD

GOODLAND FORECAST AREA HOURLY WEATHER ROUNDUP
NATIONAL WEATHER SERVICE GOODLAND KS
300 AM MDT SAT MAY 28 2016

...OFFICIAL OBSERVATIONS...

CITY           SKY/WX    TMP DP  RH WIND       PRES   REMARKS
GOODLAND KS    CLEAR     47  45  93 W10       29.88S
HILL CITY KS   PTCLDY    55  52  89 NW10      29.80R
IMPERIAL NEB   CLEAR     50  46  86 NW9       29.86S
MCCOOK NEB     CLOUDY    55  53  93 N5        29.82S
AKRON CO       CLEAR     42  39  89 NW7       29.93S
BURLINGTON CO  CLEAR     46  42  86 NW10      29.92S
LIMON CO       CLEAR     38  37  97 CALM      29.97S
$$

...UNOFFICIAL OBSERVATIONS...

CITY           SKY/WX    TMP DP  RH WIND       PRES   REMARKS
GOVE KS          N/A     49  32  52 MISG        N/A
LENORA KS        N/A     54  32  43 MISG        N/A
SHARON SPRINGS   N/A     48  46  93 NW12G18     N/A
TRIBUNE KS     CLEAR     50  46  87 W10       29.90
KIT CARSON CO    N/A     46  41  84 MISG        N/A
YUMA CO          N/A     43  41  94 CALM        N/A
$$




USA.gov is the U.S. government's official web portal to all federal, state and local government web resources and services.